MET994 - Hong Kong to Kuala Lumpur International Airport

Airbus A330-243
787MT
3 hrs 30 mins
1375 nm
Scheduled - M | TU | TH

Bid/PiRep Status

Bid was submitted on Jan 02 2017.

PiRep # 74577: Approved by Dave Nichols on January 3rd, 2017 5:15 UTC

Departure

Departing from
Hong Kong (HKG)
Departure gate
Terminal 1
Scheduled Departure
GMT 0715
Local 1515
METAR VHHH 230000Z 07010KT 7000 FEW018 21/18 Q1015 NOSIG
TAF TAF VHHH 222300Z 2300/2406 10010KT 7000 FEW020 TX26/2307Z TX24/2406Z TN21/2323Z TEMPO 2300/2303 VRB05KT 4000 BR HZ BECMG 2303/2305 28010KT BECMG 2309/2311 10010KT TEMPO 2309/2312 VRB05KT
  • No charts available

Arrival

Arriving at
Kuala Lumpur International Airport (KUL)
Arrival gate
Unassigned
Scheduled Arrival
GMT 1045
Local 1845
METAR WMKK 222330Z 19003KT 9999 FEW017CB BKN280 25/24 Q1009 NOSIG
TAF TAF WMKK 222300Z 2300/2406 03007KT 9999 FEW018 SCT140 BKN270 TEMPO 2308/2312 4000 TSRA FEW015CB SCT018

Route Map

Planning Resources

PECA1A SIKOU A202 SAMAS G221 PCA TSN L637 BITOD IKUKO PULIP PULI1V
PECAN V10 ALLEY V31 SURFA V11 IDOSI A1 BUNTA G221 PCA W12 BMT W1 AC L644 CN L642 ENREP M763 TAXUL Y331 PIBOS
SANDI2A SANDI L642 ENREO M763 PIBOS PIBOSA
CH L642 VEPLI UGPEK VPK G584 VKL
PECAN1A PECAN V12 EPDOS L642 ENREP M763 TAXUL Y349 PULIP
Route:
OFP Layout:
Units:
Detailed Navlog:
ETOPS Planning:
Plan Stepclimbs:
Runway Analysis:
Include NOTAMS:
FIR NOTAMS:
Flight Maps:

Return Flights

MET995
Airbus A330-243
1145 GMT

Popularity

Hub Current Bids PiReps this month Total PiReps
KMCI 0 0 2
KLAX 0 0 3
KBOS 0 0 0